RADFXSAT (FOX-1B) (43017 NORAD) Tracking and Keplerian Element Data

This shows tracking and keplerian element data for the satellite.

Feedback or suggestion? Click here.




ElementValue
Catalog43017
NameRADFXSAT (FOX-1B)
Epoch Orbit9890
Epoch Day262.03986663
Epoch Year2019
RAAN179.7854
Inclination97.7201
Eccentricity0.0257005
Argument of Perigee217.4604
Mean Anonmoly140.8454
Mean Motion14.78628274
Decay Rate2.17E-06
L11 43017U 17073E 19262.03986663 .00000217 00000-0 22793-4 0 9991
L22 43017 97.7201 179.7854 0257005 217.4604 140.8454 14.78628274 98908

Live tracking and technical data element details for RADFXSAT (FOX-1B) (NORAD 43017). RADFXSAT (FOX-1B) can be tracked NOW for your location showing map with azimuth and elevation plus other details from your city location.

Track the satellite on the map from your city or location and see movement details for azimuth, elevation, latitude, longitude, range, height, and movement on the map or in text.







IsCatalogInMostPopularTable: catalog: 43017, numindb: 613
Update: records affected: 1



GetName: 43017 RADFXSAT (FOX-1B)

Hit Count: updated at: Thu, 19 Sep 2019 17:08:25 GMT